ARIANE 42P DEB

基本信息
目录编号:
44511
目录名称:
ARIANE 42P DEB
国际标识:
1992-052J
轨道中心:
EARTH
物体状态:
在轨
发射日期:
1992-08-10 UTC
轨道信息
数据来源: 国际轨道数据
星历时间: 2026-07-13T09:11:22+0800
半长轴: 7696.749km
偏心率: 0.0079995
轨道倾角: 66.064°
近地点辐角: 277.084°
升交点赤经: 224.394°
平近点角: 82.108°
近地点: 1257.041km
远地点: 1380.183km
周期: 112.001分钟
每日圈数: 12.857064
详细信息
发射场:
FRGUI
轨道高度:
LEO
数据来源:
AOE Integration Group
参考系:
TEME
时间系统:
UTC
历元类型:
SGP4
2D轨道图
3D轨道图
轨道高度分析图
轨道倾角分析图
轨道综合分析图
查看轨道综合分析图